JG6YPS-13 Weather Reports


time (UTC)temp
C
wind
direction
speed
KPH
gust
KPH
rain 1hr
cm
rain 24hr
cm
rain mn
cm
humidity
%
barometer
mb
20260508071455 23 180 4.8 12.9 0.00 0.00 0.00 43 1011.0
20260508070455 23 225 3.2 8.0 0.00 0.00 0.00 44 1011.1
20260508065455 24 45 0.0 9.7 0.00 0.00 0.00 44 1011.0
20260508064455 25 270 0.0 8.0 0.00 0.00 0.00 42 1011.2
20260508063455 24 270 0.0 9.7 0.00 0.00 0.00 43 1011.2
20260508062455 25 270 1.6 16.1 0.00 0.00 0.00 43 1011.3
20260508061455 25 270 4.8 11.3 0.00 0.00 0.00 41 1011.3
20260508060455 25 225 3.2 8.0 0.00 0.00 0.00 42 1011.3
20260508055455 25 90 1.6 12.9 0.00 0.00 0.00 41 1011.1
20260508054455 26 270 1.6 9.7 0.00 0.00 0.00 43 1011.2
20260508053455 27 180 3.2 12.9 0.00 0.00 0.00 40 1011.1
20260508052455 28 225 3.2 16.1 0.00 0.00 0.00 43 1011.1
20260508051454 29 270 1.6 6.4 0.00 0.00 0.00 40 1011.3
20260508050454 30 225 4.8 11.3 0.00 0.00 0.00 40 1011.3
20260508045454 30 270 3.2 9.7 0.00 0.00 0.00 42 1011.5
20260508044453 30 270 3.2 16.1 0.00 0.00 0.00 43 1011.6
20260508043453 31 270 4.8 14.5 0.00 0.00 0.00 40 1011.6
20260508042453 30 293 3.2 4.8 0.00 0.00 0.00 42 1011.6
20260508041452 29 270 3.2 19.3 0.00 0.00 0.00 45 1011.7
20260508040452 30 135 1.6 12.9 0.00 0.00 0.00 44 1011.8
20260508035451 28 315 0.0 12.9 0.00 0.00 0.00 46 1011.9
20260508034451 30 90 1.6 4.8 0.00 0.00 0.00 45 1011.9
20260508033451 28 135 1.6 9.7 0.00 0.00 0.00 52 1012.0
20260508032451 26 270 3.2 8.0 0.00 0.00 0.00 53 1012.0
20260508031451 26 270 0.0 8.0 0.00 0.00 0.00 57 1012.0
20260508030450 25 0 3.2 8.0 0.00 0.00 0.00 56 1012.0
20260508025450 25 180 3.2 11.3 0.00 0.00 0.00 56 1011.9
20260508024450 26 270 3.2 9.7 0.00 0.00 0.00 54 1011.9
20260508023450 26 225 3.2 8.0 0.00 0.00 0.00 54 1011.9
20260508022450 26 180 1.6 8.0 0.00 0.00 0.00 55 1011.8
20260508021450 24 270 3.2 11.3 0.00 0.00 0.00 59 1011.8
20260508020450 26 270 6.4 17.7 0.00 0.00 0.00 56 1012.1
20260508015450 26 270 3.2 8.0 0.00 0.00 0.00 60 1011.9
20260508014450 26 270 6.4 16.1 0.00 0.00 0.00 60 1011.8
20260508013450 23 293 6.4 17.7 0.00 0.00 0.00 66 1011.8
20260508012450 26 225 3.2 9.7 0.00 0.00 0.00 64 1011.9
20260508011451 25 270 1.6 12.9 0.00 0.00 0.00 66 1011.8
20260508010451 24 270 3.2 11.3 0.00 0.00 0.00 66 1011.9
20260508005451 25 270 3.2 8.0 0.00 0.00 0.00 65 1011.8
20260508004451 26 270 1.6 4.8 0.00 0.00 0.00 63 1011.8
20260508003450 26 270 3.2 8.0 0.00 0.00 0.00 64 1011.9
20260508002450 26 270 3.2 4.8 0.00 0.00 0.00 65 1011.8
20260508001450 25 248 1.6 8.0 0.00 0.00 0.00 67 1011.8
20260508000450 23 45 0.0 8.0 0.00 0.00 0.00 71 1012.0
20260507235451 25 270 1.6 8.0 0.00 0.00 0.00 68 1012.0
20260507234451 24 270 0.0 6.4 0.00 0.00 0.00 70 1011.9
20260507233451 24 45 1.6 9.7 0.00 0.00 0.00 71 1011.9
20260507232451 23 225 3.2 6.4 0.00 0.00 0.00 73 1011.8
20260507231451 23 45 0.0 3.2 0.00 0.00 0.00 75 1011.9
20260507230451 22 225 0.0 6.4 0.00 0.00 0.00 78 1012.0
20260507225451 21 135 0.0 3.2 0.00 0.00 0.00 79 1012.3
20260507224451 21 315 0.0 3.2 0.00 0.00 0.00 79 1012.4
20260507223452 22 180 1.6 3.2 0.00 0.00 0.00 76 1012.2
20260507222452 21 180 0.0 3.2 0.00 0.00 0.00 78 1012.3
20260507221452 20 90 0.0 3.2 0.00 0.00 0.00 82 1012.1
20260507220452 19 135 0.0 3.2 0.00 0.00 0.00 84 1012.2
20260507215453 18 315 0.0 1.6 0.00 0.00 0.00 87 1012.3
20260507214453 19 0 0.0 3.2 0.00 0.00 0.00 85 1012.2
20260507213453 18 135 0.0 1.6 0.00 0.00 0.00 89 1012.0
20260507212454 17 225 0.0 0.0 0.00 0.00 0.00 90 1012.1
20260507211455 17 225 0.0 0.0 0.00 0.00 0.00 90 1012.1
20260507210455 17 225 0.0 0.0 0.00 0.00 0.00 91 1012.0
20260507205456 17 225 0.0 0.0 0.00 0.00 0.00 90 1011.8
20260507204456 17 225 0.0 0.0 0.00 0.00 0.00 91 1011.7
20260507203457 17 315 0.0 0.0 0.00 0.00 0.00 90 1011.6
20260507202457 17 315 0.0 0.0 0.00 0.00 0.00 90 1011.4
20260507201458 17 90 0.0 0.0 0.00 0.00 0.00 90 1011.4
20260507200458 17 315 0.0 0.0 0.00 0.00 0.00 90 1011.5
20260507195459 17 180 0.0 0.0 0.00 0.00 0.00 90 1011.7
20260507194459 17 0 0.0 0.0 0.00 0.00 0.00 90 1011.9
20260507193500 17 315 0.0 1.6 0.00 0.00 0.00 90 1011.8
20260507192500 17 180 0.0 1.6 0.00 0.00 0.00 90 1011.9
20260507191501 16 315 0.0 0.0 0.00 0.00 0.00 90 1012.1
20260507190501 16 203 0.0 1.6 0.00 0.00 0.00 90 1011.9
20260507185502 16 225 0.0 0.0 0.00 0.00 0.00 90 1011.8
20260507184502 17 0 0.0 0.0 0.00 0.00 0.00 90 1011.7
20260507183503 17 0 0.0 1.6 0.00 0.00 0.00 89 1011.7
20260507182504 17 135 0.0 1.6 0.00 0.00 0.00 89 1011.6
20260507181504 17 45 0.0 0.0 0.00 0.00 0.00 89 1011.8
20260507180504 17 0 0.0 0.0 0.00 0.00 0.00 88 1011.8
20260507175505 17 0 0.0 1.6 0.00 0.00 0.00 88 1011.9
20260507174506 17 225 0.0 1.6 0.00 0.00 0.00 88 1012.2
20260507173506 17 180 0.0 0.0 0.00 0.00 0.00 87 1012.1
20260507172507 17 180 0.0 1.6 0.00 0.00 0.00 88 1012.0
20260507171507 17 315 0.0 0.0 0.00 0.00 0.00 87 1012.0
20260507170508 17 180 0.0 1.6 0.00 0.00 0.00 88 1012.0
20260507165508 17 45 0.0 0.0 0.00 0.00 0.00 88 1012.0
20260507164509 17 90 0.0 3.2 0.00 0.00 0.00 87 1012.3
20260507163510 17 135 0.0 3.2 0.00 0.00 0.00 88 1012.7
20260507162510 17 135 1.6 3.2 0.00 0.00 0.00 87 1012.6
20260507161511 17 158 0.0 1.6 0.00 0.00 0.00 87 1012.8
20260507160511 17 180 0.0 1.6 0.00 0.00 0.00 87 1012.8
20260507155512 17 270 0.0 0.0 0.00 0.00 0.00 87 1012.9
20260507154512 17 135 0.0 0.0 0.00 0.00 0.00 87 1013.0
20260507153513 18 135 0.0 0.0 0.00 0.00 0.00 86 1013.1
20260507152513 18 135 0.0 1.6 0.00 0.00 0.00 87 1013.1
20260507151514 18 180 0.0 1.6 0.00 0.00 0.00 86 1013.1
20260507150514 18 135 0.0 1.6 0.00 0.00 0.00 86 1013.0
20260507145515 18 270 0.0 0.0 0.00 0.00 0.00 86 1013.0
20260507144515 18 180 0.0 1.6 0.00 0.00 0.00 86 1013.1
20260507143516 18 0 0.0 0.0 0.00 0.00 0.00 85 1013.0
20260507142516 18 0 0.0 0.0 0.00 0.00 0.00 84 1012.9
20260507141517 18 135 0.0 0.0 0.00 0.00 0.00 84 1012.6
20260507140517 18 135 0.0 1.6 0.00 0.00 0.00 84 1012.7
20260507135518 18 135 0.0 0.0 0.00 0.00 0.00 84 1012.8
20260507134518 18 315 0.0 3.2 0.00 0.00 0.00 84 1013.1
20260507133519 18 270 0.0 0.0 0.00 0.00 0.00 83 1013.1
20260507132519 19 0 0.0 1.6 0.00 0.00 0.00 81 1013.2
20260507131520 19 270 0.0 4.8 0.00 0.00 0.00 82 1013.2
20260507130520 19 180 0.0 1.6 0.00 0.00 0.00 82 1013.1
20260507125520 19 315 0.0 0.0 0.00 0.00 0.00 83 1013.0
20260507124520 19 225 0.0 1.6 0.00 0.00 0.00 84 1013.1
20260507123521 19 270 0.0 3.2 0.00 0.00 0.00 83 1012.9
20260507122521 20 225 0.0 3.2 0.00 0.00 0.00 84 1012.7
20260507121521 19 180 1.6 3.2 0.00 0.00 0.00 84 1012.7
20260507120522 19 180 1.6 3.2 0.00 0.00 0.00 83 1012.4
20260507115522 20 180 0.0 3.2 0.00 0.00 0.00 82 1012.3
20260507114522 20 203 3.2 3.2 0.00 0.00 0.00 80 1012.1
20260507113522 21 180 1.6 3.2 0.00 0.00 0.00 77 1012.1
20260507112523 21 270 3.2 4.8 0.00 0.00 0.00 75 1012.0
20260507111523 21 135 0.0 3.2 0.00 0.00 0.00 74 1012.0
20260507110523 21 180 1.6 4.8 0.00 0.00 0.00 74 1011.9
20260507105523 21 180 3.2 8.0 0.00 0.00 0.00 74 1011.7
20260507104523 22 203 1.6 4.8 0.00 0.00 0.00 73 1011.7
20260507103524 22 203 1.6 8.0 0.00 0.00 0.00 72 1011.7
20260507102524 22 225 3.2 4.8 0.00 0.00 0.00 73 1011.6
20260507101524 22 203 1.6 3.2 0.00 0.00 0.00 71 1011.3
20260507100524 23 225 1.6 6.4 0.00 0.00 0.00 69 1011.3
20260507095524 23 203 1.6 3.2 0.00 0.00 0.00 68 1011.1
20260507094524 23 0 0.0 3.2 0.00 0.00 0.00 66 1011.0
20260507093524 24 270 0.0 8.0 0.00 0.00 0.00 65 1010.9
20260507092524 24 270 0.0 3.2 0.00 0.00 0.00 65 1010.8
20260507091524 24 315 0.0 6.4 0.00 0.00 0.00 65 1010.7
20260507090524 25 135 0.0 3.2 0.00 0.00 0.00 65 1010.6
20260507085524 25 338 0.0 3.2 0.00 0.00 0.00 66 1010.5
20260507084524 25 270 1.6 6.4 0.00 0.00 0.00 65 1010.6
20260507083524 25 0 0.0 8.0 0.00 0.00 0.00 65 1010.5
20260507082524 25 270 1.6 4.8 0.00 0.00 0.00 64 1010.4
20260507081523 25 270 1.6 4.8 0.00 0.00 0.00 65 1010.4
20260507080523 26 270 3.2 11.3 0.00 0.00 0.00 63 1010.4
20260507075523 26 315 3.2 9.7 0.00 0.00 0.00 63 1010.4
20260507074523 26 225 3.2 9.7 0.00 0.00 0.00 62 1010.4
20260507073523 26 315 1.6 12.9 0.00 0.00 0.00 62 1010.4
20260507072522 27 225 1.6 12.9 0.00 0.00 0.00 61 1010.4